Tracking 28790 objects as of 19-Apr-2024
HD Live streaming from Space Station
objects crossing your sky now

FENGYUN 1C DEB

Track FENGYUN 1C DEB now!
10-day predictions


NORAD ID: 30371
Int'l Code: 1999-025ACJ
Perigee: 811.5 km
Apogee: 820.5 km
Inclination: 98.6 °
Period: 101.1 minutes
Semi major axis: 7187 km
RCS: 0.046 m2 (small)
Launch date: May 10, 1999
Source: People's Republic of China (PRC)
Launch site: Taiyaun Space Center, China (TSC)

Note: This is SATELLITE DEBRIS
Your satellite tracking list
Your tracking list is empty




NASA's NSSDC Master Catalog

Two Line Element Set (TLE):
1 30371U 99025ACJ 24109.82601720  .00005996  00000-0  25839-2 0  9999
2 30371  98.6278 155.8845 0006257 299.5062 113.2462 14.24886745892990
Source of the keplerian elements: AFSPC